星链-32848 (STARLINK-32848)

导读 | 星芒AI

STARLINK-32848 是 SpaceX 星链计划中的一颗低轨通信卫星,属于星链第三代卫星群。该卫星于2023年发射,旨在为全球用户提供高速互联网服务。它运行在约550公里高度的近地轨道,具备先进通信技术和激光互联能力,有助于提升网络覆盖与传输效率。作为星链系统的一部分,STARLINK-32848 支持偏远地区的宽带接入,推动全球互联网普及。

基本信息
目录编号:
62808
目录名称:
STARLINK-32848
国际标识:
2025-018C
轨道中心:
EARTH
卫星名称:
星链-32848
卫星全名:
星链-32848 (STARLINK-32848)
卫星状态:
在轨 (已飞行287 天)
发射日期:
2025-01-24 UTC
国别 :
美国 (US)
星等 :
--
轨道信息
数据来源 国际轨道数据
星历时间: 2025-11-07T08:00:03+0800
23小时前
查看轨道信息
半长轴: 6853.489km
偏心率: 0.0001448
轨道倾角: 53.157°
近地点辐角 89.319°
升交点赤经 159.443°
平近点角 304.298°
近地点: 474.361km
远地点: 476.347km
周期: 94.108分钟
每日圈数: 15.301544
详细信息
固有亮度:
5
最大亮度:
2.5
卫星平台:
Starlink V1.0
覆盖范围:
全球
运营商:
太空探索技术公司
运营商所在国:
美国
制造商(研发单位):
太空探索技术公司
制造商所在国:
美国
使用方式:
暂无
卫星简介
Starlink 计划是 SpaceX 推出的全球卫星互联网项目,通过发射低轨道卫星,为全球尤其是偏远地区提供高速、低延迟的互联网服务。自 2019 年起,Starlink 已部署数千颗卫星,旨在缩小全球数字鸿沟,推动互联网普及。该项目还为军事、航空等行业提供通信支持,带来广泛经济效益。
2D轨道图
3D轨道图
轨道高度分析图
轨道倾角分析图
轨道综合分析图
查看轨道综合分析图